EW1390 Weather Reports


Display with metric or nautical units.
time (UTC)temp
F
wind
direction
speed
MPH
gust
MPH
rain 1hr
in
rain 24hr
in
rain mn
in
humidity
%
barometer
mb
20260903034532 63 219 0.0 1.0 0.00 0.00 0.00 61 1008.6
20260903033032 64 219 0.0 1.0 0.00 0.00 0.00 60 1008.4
20260903031534 65 219 0.0 1.0 0.00 0.00 0.00 58 1008.3
20260903030031 66 219 0.0 1.0 0.00 0.00 0.00 55 1008.2
20260903024530 68 219 0.0 1.0 0.00 0.00 0.00 53 1008.1
20260903023037 70 219 0.0 1.0 0.00 0.00 0.00 50 1008.1
20260903021528 71 219 0.0 3.0 0.00 0.00 0.00 48 1008.3
20260903020026 72 219 0.0 3.0 0.00 0.00 0.00 45 1008.3
20260903014525 73 234 0.0 4.0 0.00 0.00 0.00 41 1008.3
20260903013023 74 167 1.0 4.0 0.00 0.00 0.00 40 1008.3
20260903011524 74 246 0.0 3.0 0.00 0.00 0.00 39 1008.2
20260903010021 75 84 1.0 5.0 0.00 0.00 0.00 38 1008.4
20260903004525 77 238 1.0 6.0 0.00 0.00 0.00 35 1008.5
20260903003020 77 241 1.0 5.0 0.00 0.00 0.00 35 1008.5
20260903001522 77 261 0.0 5.0 0.00 0.00 0.00 34 1008.6
20260903000035 78 248 2.0 7.0 0.00 0.00 0.00 33 1008.6
20260902234515 78 82 1.0 8.0 0.00 0.00 0.00 34 1008.7
20260902233014 78 217 1.0 6.0 0.00 0.00 0.00 33 1008.8
20260902231518 78 17 0.0 4.0 0.00 0.00 0.00 32 1008.8
20260902230010 77 150 1.0 15.0 0.00 0.00 0.00 33 1008.9
20260902224510 77 223 2.0 8.0 0.00 0.00 0.00 35 1009.2
20260902223010 76 150 1.0 6.0 0.00 0.00 0.00 35 1009.2
20260902221507 76 248 3.0 9.0 0.00 0.00 0.00 34 1009.3
20260902220008 77 260 2.0 10.0 0.00 0.00 0.00 34 1009.4
20260902214506 77 59 1.0 6.0 0.00 0.00 0.00 35 1009.6
20260902213003 76 226 1.0 8.0 0.00 0.00 0.00 35 1009.8
20260902211502 76 234 1.0 6.0 0.00 0.00 0.00 36 1009.8
20260902210059 76 229 0.0 4.0 0.00 0.00 0.00 36 1009.9
20260902204606 75 229 4.0 10.0 0.00 0.00 0.00 36 1009.9
20260902203056 75 229 2.0 8.0 0.00 0.00 0.00 37 1010.1
20260902201616 75 117 2.0 14.0 0.00 0.00 0.00 38 1010.2
20260902200054 75 132 2.0 8.0 0.00 0.00 0.00 40 1010.3
20260902194553 74 85 2.0 10.0 0.00 0.00 0.00 40 1010.3
20260902193050 74 117 1.0 8.0 0.00 0.00 0.00 41 1010.3
20260902191547 73 188 1.0 8.0 0.00 0.00 0.00 41 1010.5
20260902190046 73 208 2.0 7.0 0.00 0.00 0.00 42 1010.6
20260902184545 73 239 1.0 8.0 0.00 0.00 0.00 42 1010.7
20260902183042 71 130 1.0 7.0 0.00 0.00 0.00 45 1010.8
20260902181540 71 156 0.0 5.0 0.00 0.00 0.00 46 1010.9
20260902180036 70 138 1.0 6.0 0.00 0.00 0.00 47 1010.8
20260902174544 68 54 0.0 4.0 0.00 0.00 0.00 49 1010.7
20260902173029 68 200 0.0 3.0 0.00 0.00 0.00 50 1010.6
20260902171526 67 153 0.0 3.0 0.00 0.00 0.00 52 1010.6
20260902170031 65 207 0.0 3.0 0.00 0.00 0.00 55 1010.7
20260902164526 63 246 0.0 3.0 0.00 0.00 0.00 60 1010.7
20260902163012 61 328 0.0 3.0 0.00 0.00 0.00 67 1010.7
20260902161521 59 331 0.0 0.0 0.00 0.00 0.00 75 1010.5
20260902160007 57 331 0.0 0.0 0.00 0.00 0.00 82 1010.5
20260902154605 55 331 0.0 0.0 0.00 0.00 0.00 83 1010.5
20260902153058 54 331 0.0 0.0 0.00 0.00 0.00 84 1010.4
20260902151657 53 331 0.0 0.0 0.00 0.00 0.00 85 1010.6
20260902150056 51 331 0.0 0.0 0.00 0.00 0.00 86 1010.7
20260902144559 50 331 0.0 0.0 0.00 0.00 0.00 87 1010.6
20260902143052 48 331 0.0 0.0 0.00 0.00 0.00 87 1010.4
20260902141550 47 331 0.0 0.0 0.00 0.00 0.00 86 1010.0
20260902140049 47 331 0.0 0.0 0.00 0.00 0.00 86 1010.0
20260902134548 47 331 0.0 0.0 0.00 0.00 0.00 86 1010.0
20260902133055 47 331 0.0 0.0 0.00 0.00 0.00 85 1009.6
20260902131556 47 331 0.0 0.0 0.00 0.00 0.00 85 1009.6
20260902130044 47 331 0.0 0.0 0.00 0.00 0.00 85 1009.5
20260902124544 47 331 0.0 0.0 0.00 0.00 0.00 85 1009.3
20260902123043 47 331 0.0 0.0 0.00 0.00 0.00 85 1009.3
20260902121543 47 331 0.0 0.0 0.00 0.00 0.00 85 1009.4
20260902120041 47 331 0.0 0.0 0.00 0.00 0.00 84 1009.4
20260902114544 47 331 0.0 0.0 0.00 0.00 0.00 84 1009.4
20260902113052 47 331 0.0 0.0 0.00 0.00 0.00 83 1009.7
20260902111538 48 331 0.0 0.0 0.00 0.00 0.00 83 1009.7
20260902110036 48 331 0.0 0.0 0.00 0.00 0.00 83 1009.7
20260902104551 48 331 0.0 0.0 0.00 0.00 0.00 83 1009.8
20260902103033 48 331 0.0 0.0 0.00 0.00 0.00 82 1009.6
20260902101537 48 331 0.0 1.0 0.00 0.00 0.00 83 1009.5
20260902100029 49 331 0.0 0.0 0.00 0.00 0.00 82 1009.4
20260902094528 49 331 0.0 0.0 0.00 0.00 0.00 82 1009.4
20260902093027 49 331 0.0 0.0 0.00 0.00 0.00 81 1009.4
20260902091530 50 331 0.0 0.0 0.00 0.00 0.00 80 1009.4
20260902090021 50 331 0.0 1.0 0.00 0.00 0.00 80 1009.3
20260902084520 50 331 0.0 0.0 0.00 0.00 0.00 80 1009.5
20260902083017 51 331 0.0 0.0 0.00 0.00 0.00 79 1009.6
20260902081521 51 331 0.0 1.0 0.00 0.00 0.00 78 1009.7
20260902080014 52 331 1.0 2.0 0.00 0.00 0.00 78 1009.6
20260902074510 52 331 0.0 2.0 0.00 0.00 0.00 76 1009.5
20260902073007 53 331 0.0 0.0 0.00 0.00 0.00 75 1009.3
20260902071504 54 331 0.0 0.0 0.00 0.00 0.00 74 1009.4
20260902070100 55 331 0.0 0.0 0.00 0.00 0.00 73 1009.5
20260902064559 55 331 0.0 0.0 0.00 0.00 0.00 73 1009.6
20260902063059 56 331 0.0 1.0 0.00 0.00 0.00 72 1009.5
20260902061559 56 331 0.0 1.0 0.00 0.00 0.00 72 1009.8
20260902060105 57 331 0.0 4.0 0.00 0.00 0.00 71 1009.9
20260902054607 57 228 0.0 3.0 0.00 0.00 0.00 70 1010.0
20260902053111 58 228 0.0 2.0 0.00 0.00 0.00 70 1009.8
20260902051604 58 228 0.0 3.0 0.00 0.00 0.00 69 1009.9
20260902050059 58 207 1.0 8.0 0.00 0.00 0.00 68 1009.9
20260902044552 58 257 1.0 6.0 0.00 0.00 0.00 68 1009.7
20260902043058 57 227 0.0 2.0 0.00 0.00 0.00 67 1009.4
20260902041548 57 227 0.0 0.0 0.00 0.00 0.00 63 1009.1
20260902040046 58 227 0.0 0.0 0.00 0.00 0.00 61 1008.8